• MPC Preparation (Info)

  • MPEC 2022-Y110 : 2022 YV2

    The following Minor Planet Electronic Circular may be linked-to from your own Web pages, but must not otherwise be redistributed electronically.

    A form allowing access to any MPEC is at the bottom of this page.


    Read MPEC 2022-Y109 Read MPEC 2022-Y111


    M.P.E.C. 2022-Y110                            Issued 2022 December 23, 11:57 UT
    
         The Minor Planet Electronic Circulars contain information on unusual
             minor planets, routine data on comets and natural satellites,
             and occasional editorial announcements.  They are published
        on behalf of Division F of the International Astronomical Union by the
              Minor Planet Center, Smithsonian Astrophysical Observatory,
                              Cambridge, MA 02138, U.S.A.
    			  
                 Prepared using the Tamkin Foundation Computer Network
    
                                  MPC@CFA.HARVARD.EDU
                URL https://www.minorplanetcenter.net/    ISSN 1523-6714
    
                                    2022 YV2                                 
    
    
    Observations:
         K22Y02V* C2022 12 21.36594407 32 27.956+54 41 39.95         21.46GVEY110V00
         K22Y02V  C2022 12 21.38803607 32 29.501+54 43 23.12         21.30GVEY110V00
         K22Y02V  C2022 12 21.39308707 32 29.839+54 43 46.31         22.08GVEY110V00
         K22Y02V  C2022 12 21.39805707 32 30.196+54 44 09.06         21.61GVEY110V00
         K22Y02V KC2022 12 21.46678607 32 35.081+54 49 18.91         21.30GVEY110V06
         K22Y02V KC2022 12 21.47036307 32 35.387+54 49 34.36         21.15GVEY110V06
         K22Y02V KC2022 12 21.47394607 32 35.624+54 49 50.45         21.22GVEY110V06
         K22Y02V KC2022 12 22.23732807 34 15.884+55 47 53.12         21.26GVEY110I52
         K22Y02V KC2022 12 22.23964507 34 16.093+55 48 03.42         21.73GVEY110I52
         K22Y02V KC2022 12 22.24196207 34 16.252+55 48 15.05         20.97GVEY110I52
         K22Y02V KC2022 12 22.24428407 34 16.450+55 48 25.81         21.32GVEY110I52
         K22Y02V KC2022 12 23.27766807 36 16.099+57 04 45.80         21.77GVEY110I52
         K22Y02V KC2022 12 23.28153407 36 16.312+57 05 03.66         21.44GVEY110I52
         K22Y02V KC2022 12 23.28539607 36 16.636+57 05 21.30         21.88GVEY110I52
         K22Y02V KC2022 12 23.28925607 36 16.834+57 05 31.70               VEY110I52
    
    Observer details:
    I52 Steward Observatory, Mt. Lemmon Station.  Observer R. A. Kowalski.
        Measurers E. J. Christensen, D. Fay, J. B. Fazekas, D. C. Fuls, A. R.
        Gibbs, A. D. Grauer, H. Groeller, J. K. Hogan, R. A. Kowalski, S. M.
        Larson, G. J. Leonard, D. Rankin, R. L. Seaman, A. Serrano, F. C. Shelly,
        K. W. Wierzchos.  1.0-m prime focus + CCD.
    V00 Kitt Peak-Bok.  Observer C. Lejoly.  Measurers M. J. Brucker, E. J.
        Christensen, C. E. Woodward, D. Fay, J. B. Fazekas, D. C. Fuls, A. R.
        Gibbs, A. D. Grauer, H. Groeller, J. K. Hogan, R. A. Kowalski, S. M.
        Larson, G. J. Leonard, R. S. McMillan, D. Rankin, R. L. Seaman, A.
        Serrano, F. C. Shelly, K. W. Wierzchos.  2.25-m reflector + 4x4K mosaic
        CCD.
    V06 Catalina Sky Survey-Kuiper.  Observer R. A. Kowalski.  Measurers E. J.
        Christensen, D. Fay, J. B. Fazekas, D. C. Fuls, A. R. Gibbs, A. D. Grauer,
        H. Groeller, J. K. Hogan, R. A. Kowalski, S. M. Larson, G. J. Leonard, D.
        Rankin, R. L. Seaman, A. Serrano, F. C. Shelly, K. W. Wierzchos.  1.55-m
        reflector + 1K CCD.
    
    Orbital elements:
    2022 YV2                                                 Earth MOID = 0.0952 AU
    Epoch 2023 Feb. 25.0 TT = JDT 2460000.5                 Veres                   
    M  47.37234              (2000.0)            P               Q                  
    n   0.71320168     Peri.   19.00765     +0.00303693     -0.98777947             
    a   1.2406839      Node    71.05953     +0.89481230     -0.06688316             
    e   0.1326748      Incl.    9.48262     +0.44643223     +0.14077767             
    P   1.38           H   24.95          G   0.15           U   8                  
    Residuals in seconds of arc
    221221 V00  0.0   0.4-    221221 V06  0.0   0.2-    221222 I52  0.2-  0.1-
    221221 V00  0.1+  0.2+    221221 V06  0.3-  0.1+    221223 I52  0.7+  0.3-
    221221 V00  0.0   0.1+    221222 I52  0.0   0.3+    221223 I52  0.1+  0.0
    221221 V00  0.1+  0.0     221222 I52  0.1+  0.4-    221223 I52  0.4+  0.2+
    221221 V06  0.2-  0.3+    221222 I52  0.2-  0.2+    221223 I52 (0.3-  6.8-)
    
    Ephemeris:
    2022 YV2                 a,e,i = 1.24, 0.13, 9                   q = 1.0761
    Date    TT    R. A. (2000) Decl.     Delta      r    Elong.  Phase     V
    2022 11 23    06 35 33.9 +13 38 21   0.1267  1.0886   140.6    35.2    22.1
    ...
    2022 12 08    07 05 32.4 +34 41 36   0.1069  1.0787   149.6    27.6    21.5
    ...
    2022 12 16    07 21 44.9 +47 11 17   0.1073  1.0764   147.6    29.3    21.5
    ...
    2022 12 22    07 33 42.1 +55 29 42   0.1122  1.0761   143.5    32.9    21.7
    2022 12 23    07 35 39.1 +56 44 08   0.1134  1.0761   142.7    33.6    21.8
    2022 12 24    07 37 35.4 +57 55 49   0.1146  1.0762   141.9    34.3    21.8
    ...
    2022 12 30    07 48 54.5 +64 06 00   0.1237  1.0775   137.3    38.2    22.1
    ...
    2023 01 07    08 02 50.6 +69 45 42   0.1388  1.0812   132.0    42.5    22.5
    ...
    2023 01 22    08 21 36.3 +74 06 24   0.1717  1.0934   125.7    46.9    23.1
    
    M. P. C. Staff               (C) Copyright 2022 MPC           M.P.E.C. 2022-Y110
    


    Read MPEC 2022-Y109 Read MPEC 2022-Y111


    MPEC number:

    Enter an MPEC number in one of the following forms:

    • 1997-B01 (the full form)
    • J97B01 (the packed version of the full form)
    • B01 (the abbreviated form)